Location: Pedholt
(56.0260°N, 10.2097°E)
Time: 06:29:18
(UTC+00:00)

Cosmos 2251 Rocket - Pass Details

Date: 14 July 2020
Orbit: 764 x 792 km, 74.0° (Epoch: 14 August)

Event Time Altitude Azimuth Distance (km) Brightness Sun altitude
Exits shadow 01:32:35 - 236° (SW) 2,582 5.7 -7.8°
Reaches altitude 10° 01:33:21 10° 238° (WSW) 2,303 5.4 -7.7°
Maximum altitude 01:38:18 42° 310° (NW) 1,086 4.4 -7.4°
Drops below altitude 10° 01:43:19 10° 21° (NNE) 2,324 7.7 -7.0°
Sets 01:45:50 0° 29° (NNE) 3,258 9.4 -6.8°
